Погода в Косинском

Россия / Владимирская область     56°30′38″N   39°34′16″E
темп.,
°C
ветер,
м/с
пор.,
м/с
влажн.,
%
обл.,
%
осадки,
мм/ч
давл.,
гПа
погр.,
м
8 марта, пн
пн800:00−8зсз4896100 1.1 994346
03:00−12з479183 1.4 995104
06:00−12зюз3596100 0.0 995101
09:00−9з3594100 0.3 996239
12:00−7сз4688100 0.1 999640
15:00−7сз7988100 0.2 1001873
18:00−10ссз51091100 0.2 1005422
21:00−14сз499591 0.2 1007177
9 марта, вт
вт900:00−15ссз489783 0.1 1009167
03:00−18ссз469991 0.1 1012117
06:00−21ссз34100100 0.0 101374
09:00−20ссз4798100 0.1 1015236
12:00−16ссз4693100 0.0 1016406
15:00−15ссз4790100 0.1 1017596
18:00−17ссз4895100 0.1 1019290
21:00−22ссз499898 0.1 1022180
10 марта, ср
ср1000:00−24ссз4810094 0.0 1023148
03:00−26ссз4710093 0.1 1025107
06:00−28ссз479941 0.0 1026116
09:00−26с479621 0.0 1028226
12:00−20ссз45900 0.0 1028327
15:00−15ссз47830 0.0 1028595
18:00−18зсз47920 0.0 102898
21:00−19сз499532 0.0 1030153
11 марта, чт
чт1100:00−21сз3499100 0.0 103065
03:00−22сз34100100 0.1 103143
06:00−23сз339974 0.0 103227
09:00−19сз349637 0.0 1033136
12:00−13сз238840 0.0 1032299
15:00−10зсз238358 0.0 1032455
18:00−14зюз228989 0.0 103120
21:00−16юз239344 0.0 103220
12 марта, пт
пт1200:00−17юз34970 0.0 103242
03:00−18юз47950 0.0 103185
06:00−20юз47930 0.0 1031116
09:00−16ююз59810 0.0 1031256
12:00−11ююз610750 0.0 1029486
15:00−9ююз611780 0.0 1028649
18:00−11ю612850 0.0 1026385
21:00−14ю715880 0.0 1026355